Location: *
(33.8649°S, 62.1526°E)
Time: 08:44:41
(UTC+00:00)

Cosmos 407 Rocket - Visible Passes

Search period start: 09 May 2021 00:00
Search period end: 19 May 2021 00:00
Orbit: 743 x 787 km, 74.0° (Epoch: 08 May)

Date Brightness Start Highest point End Pass type
(mag) Time Alt. Az. Time Alt. Az. Time Alt. Az.
09 May 5.2 00:09:07 10° NNE 00:13:48 32° E 00:18:29 10° SE visible
09 May 4.5 01:51:25 10° WNW 01:55:46 25° WSW 02:00:07 10° S visible
09 May 6.1 23:32:38 10° NE 23:36:04 18° E 23:39:30 10° SE visible
10 May 3.8 01:12:33 10° NW 01:17:37 45° WSW 01:22:42 10° S visible
11 May 3.4 00:35:50 20° NNW 00:39:36 82° WSW 00:44:55 10° SSE visible
12 May 4.2 00:02:06 52° E 00:02:06 52° E 00:06:50 10° SSE visible
12 May 5.0 01:42:28 14° W 01:43:59 16° WSW 01:47:12 10° SSW visible
12 May 5.9 23:26:47 18° SE 23:26:47 18° SE 23:28:22 10° SE visible
13 May 4.6 01:07:05 25° SW 01:07:05 25° SW 01:10:16 10° S visible
14 May 5.2 00:31:08 20° S 00:31:08 20° S 00:32:46 10° S visible
14 May 6.1 23:54:52 10° SSE 23:54:52 10° SSE 23:54:56 10° SSE visible
